Location: Recife
(8.0585°S, 34.8848°W)
Time: 13:35:19
(UTC-03:00)

Transit 4A - Pass Details

Date: 20 April 2026
Orbit: 861 x 980 km, 66.8° (Epoch: 12 May)

Event Time Altitude Azimuth Distance (km) Brightness Sun altitude
Rises 01:18:11 0° 294° (WNW) 3,637 - -60.3°
Reaches altitude 10° 01:24:00 10° 251° (WSW) 2,666 - -58.9°
Maximum altitude 01:24:35 10° 246° (WSW) 2,653 - -58.8°
Drops below altitude 10° 01:25:09 10° 241° (WSW) 2,660 - -58.6°
Sets 01:30:56 0° 198° (SSW) 3,570 - -57.2°
